| time (UTC) | temp F | wind direction | speed knots | gust knots | rain 1hr in | rain 24hr in | rain mn in | humidity % | barometer mb |
| 20260510164526 | 80 | 144 | 6.1 | 13.0 | 0.00 | 0.00 | 0.00 | 70 | 1011.3 |
| 20260510164022 | 80 | 107 | 7.8 | 13.0 | 0.00 | 0.00 | 0.00 | 70 | 1011.3 |
| 20260510163522 | 80 | 123 | 8.7 | 13.0 | 0.00 | 0.00 | 0.00 | 68 | 1011.2 |
| 20260510163021 | 81 | 134 | 4.3 | 13.9 | 0.00 | 0.00 | 0.00 | 68 | 1011.2 |
| 20260510162521 | 80 | 171 | 7.8 | 13.0 | 0.00 | 0.00 | 0.00 | 69 | 1011.3 |
| 20260510162019 | 80 | 138 | 7.8 | 14.8 | 0.00 | 0.00 | 0.00 | 70 | 1011.2 |
| 20260510161519 | 80 | 130 | 7.8 | 14.8 | 0.00 | 0.00 | 0.00 | 70 | 1011.2 |
| 20260510161018 | 80 | 360 | 7.0 | 13.9 | 0.00 | 0.00 | 0.00 | 68 | 1011.1 |
| 20260510160518 | 80 | 152 | 4.3 | 13.0 | 0.00 | 0.00 | 0.00 | 68 | 1011.0 |
| 20260510160021 | 80 | 146 | 7.8 | 13.0 | 0.00 | 0.00 | 0.00 | 68 | 1011.1 |
| 20260510155516 | 80 | 125 | 4.3 | 13.0 | 0.00 | 0.00 | 0.00 | 68 | 1011.0 |
| 20260510155013 | 79 | 159 | 6.1 | 11.3 | 0.00 | 0.00 | 0.00 | 70 | 1011.0 |
| 20260510154511 | 79 | 125 | 7.0 | 11.3 | 0.00 | 0.00 | 0.00 | 70 | 1011.1 |
| 20260510154011 | 79 | 127 | 5.2 | 9.6 | 0.00 | 0.00 | 0.00 | 70 | 1010.9 |
| 20260510153509 | 78 | 130 | 3.5 | 8.7 | 0.00 | 0.00 | 0.00 | 70 | 1010.9 |
| 20260510153008 | 78 | 168 | 5.2 | 8.7 | 0.00 | 0.00 | 0.00 | 71 | 1010.9 |
| 20260510152506 | 78 | 175 | 0.9 | 7.8 | 0.00 | 0.00 | 0.00 | 72 | 1010.8 |
| 20260510152004 | 77 | 184 | 2.6 | 7.8 | 0.00 | 0.00 | 0.00 | 73 | 1010.7 |
| 20260510151504 | 78 | 157 | 5.2 | 7.8 | 0.00 | 0.00 | 0.00 | 72 | 1010.6 |
| 20260510151002 | 78 | 176 | 1.7 | 6.1 | 0.00 | 0.00 | 0.00 | 73 | 1010.6 |
| 20260510150601 | 77 | 173 | 3.5 | 6.1 | 0.00 | 0.00 | 0.00 | 74 | 1010.6 |
| 20260510150100 | 77 | 360 | 0.9 | 4.3 | 0.00 | 0.00 | 0.00 | 74 | 1010.5 |
| 20260510145559 | 78 | 206 | 0.9 | 5.2 | 0.00 | 0.00 | 0.00 | 74 | 1010.6 |
| 20260510145059 | 76 | 217 | 1.7 | 8.7 | 0.00 | 0.00 | 0.00 | 75 | 1010.6 |
| 20260510144558 | 77 | 161 | 2.6 | 7.8 | 0.00 | 0.00 | 0.00 | 75 | 1010.5 |
| 20260510144059 | 76 | 186 | 0.9 | 7.8 | 0.00 | 0.00 | 0.00 | 77 | 1010.5 |
| 20260510143555 | 76 | 192 | 3.5 | 7.8 | 0.00 | 0.00 | 0.00 | 77 | 1010.5 |
| 20260510143104 | 76 | 203 | 2.6 | 8.7 | 0.00 | 0.00 | 0.00 | 78 | 1010.5 |
| 20260510142553 | 75 | 219 | 4.3 | 8.7 | 0.00 | 0.00 | 0.00 | 78 | 1010.4 |
| 20260510142052 | 75 | 251 | 5.2 | 8.7 | 0.00 | 0.00 | 0.00 | 78 | 1010.4 |
| 20260510141555 | 75 | 203 | 1.7 | 5.2 | 0.00 | 0.00 | 0.00 | 79 | 1010.2 |
| 20260510141050 | 74 | 214 | 2.6 | 9.6 | 0.00 | 0.00 | 0.00 | 79 | 1010.2 |
| 20260510140548 | 74 | 360 | 3.5 | 10.4 | 0.00 | 0.00 | 0.00 | 80 | 1010.2 |
| 20260510140047 | 74 | 360 | 4.3 | 10.4 | 0.00 | 0.00 | 0.00 | 80 | 1010.1 |
| 20260510135545 | 73 | 360 | 7.0 | 10.4 | 0.00 | 0.00 | 0.00 | 81 | 1010.1 |
| 20260510135045 | 73 | 360 | 3.5 | 9.6 | 0.00 | 0.00 | 0.00 | 81 | 1010.1 |
| 20260510134544 | 73 | 360 | 5.2 | 9.6 | 0.00 | 0.00 | 0.00 | 81 | 1010.0 |
| 20260510134042 | 73 | 360 | 2.6 | 7.0 | 0.00 | 0.00 | 0.00 | 81 | 1010.2 |
| 20260510133544 | 72 | 360 | 2.6 | 7.0 | 0.00 | 0.00 | 0.00 | 81 | 1010.0 |
| 20260510133041 | 72 | 360 | 2.6 | 7.8 | 0.00 | 0.00 | 0.00 | 81 | 1010.0 |
| 20260510132539 | 72 | 360 | 4.3 | 7.8 | 0.00 | 0.00 | 0.00 | 81 | 1009.9 |
| 20260510132039 | 72 | 360 | 2.6 | 8.7 | 0.00 | 0.00 | 0.00 | 81 | 1009.8 |
| 20260510131538 | 72 | 360 | 2.6 | 8.7 | 0.00 | 0.00 | 0.00 | 81 | 1009.7 |
| 20260510131036 | 71 | 360 | 5.2 | 8.7 | 0.00 | 0.00 | 0.00 | 81 | 1009.6 |
| 20260510130536 | 71 | 360 | 4.3 | 9.6 | 0.00 | 0.00 | 0.00 | 82 | 1009.7 |
| 20260510130034 | 71 | 360 | 4.3 | 9.6 | 0.00 | 0.00 | 0.00 | 82 | 1009.4 |
| 20260510125536 | 71 | 360 | 3.5 | 7.8 | 0.00 | 0.15 | 0.00 | 82 | 1009.4 |
| 20260510125032 | 71 | 360 | 4.3 | 7.8 | 0.00 | 0.15 | 0.00 | 82 | 1009.5 |
| 20260510124533 | 71 | 360 | 3.5 | 5.2 | 0.00 | 0.15 | 0.00 | 82 | 1009.4 |
| 20260510124031 | 70 | 360 | 1.7 | 4.3 | 0.00 | 0.15 | 0.00 | 82 | 1009.6 |
| 20260510123529 | 70 | 360 | 1.7 | 4.3 | 0.00 | 0.15 | 0.00 | 82 | 1009.6 |
| 20260510123028 | 70 | 360 | 2.6 | 4.3 | 0.00 | 0.15 | 0.00 | 82 | 1009.4 |
| 20260510122525 | 70 | 360 | 1.7 | 4.3 | 0.00 | 0.15 | 0.00 | 82 | 1009.4 |
| 20260510122024 | 70 | 360 | 1.7 | 4.3 | 0.00 | 0.15 | 0.00 | 82 | 1009.3 |
| 20260510121523 | 70 | 360 | 2.6 | 7.0 | 0.00 | 0.15 | 0.00 | 82 | 1009.3 |
| 20260510121021 | 70 | 360 | 3.5 | 7.0 | 0.00 | 0.15 | 0.00 | 82 | 1009.1 |
| 20260510120521 | 70 | 360 | 3.5 | 8.7 | 0.00 | 0.15 | 0.00 | 82 | 1009.0 |
| 20260510120020 | 70 | 360 | 3.5 | 7.0 | 0.00 | 0.15 | 0.00 | 81 | 1009.0 |
| 20260510115519 | 70 | 360 | 2.6 | 7.0 | 0.00 | 0.15 | 0.00 | 81 | 1009.0 |
| 20260510115018 | 70 | 360 | 3.5 | 8.7 | 0.00 | 0.15 | 0.00 | 81 | 1009.1 |
| 20260510114520 | 70 | 360 | 4.3 | 8.7 | 0.00 | 0.15 | 0.00 | 81 | 1009.2 |
| 20260510114017 | 70 | 360 | 4.3 | 8.7 | 0.00 | 0.15 | 0.00 | 80 | 1009.2 |
| 20260510113516 | 70 | 360 | 3.5 | 7.8 | 0.00 | 0.15 | 0.00 | 80 | 1009.1 |
| 20260510113016 | 70 | 360 | 3.5 | 7.8 | 0.00 | 0.15 | 0.00 | 79 | 1009.1 |
| 20260510112515 | 70 | 360 | 3.5 | 7.8 | 0.00 | 0.15 | 0.00 | 79 | 1009.2 |
| 20260510112016 | 70 | 360 | 1.7 | 7.0 | 0.00 | 0.15 | 0.00 | 78 | 1009.1 |
| 20260510111516 | 70 | 360 | 0.9 | 7.0 | 0.00 | 0.15 | 0.00 | 78 | 1009.1 |
| 20260510111012 | 70 | 360 | 1.7 | 7.0 | 0.00 | 0.15 | 0.00 | 78 | 1009.0 |
| 20260510110517 | 70 | 360 | 1.7 | 7.0 | 0.00 | 0.15 | 0.00 | 78 | 1009.2 |
| 20260510110012 | 70 | 360 | 2.6 | 7.8 | 0.00 | 0.15 | 0.00 | 78 | 1009.2 |
| 20260510105511 | 71 | 360 | 2.6 | 7.8 | 0.00 | 0.15 | 0.00 | 77 | 1009.2 |
| 20260510105013 | 71 | 360 | 2.6 | 7.8 | 0.00 | 0.15 | 0.00 | 77 | 1009.2 |
| 20260510104510 | 71 | 360 | 3.5 | 7.8 | 0.00 | 0.15 | 0.00 | 77 | 1009.2 |
| 20260510104013 | 71 | 360 | 3.5 | 7.8 | 0.00 | 0.15 | 0.00 | 77 | 1009.3 |
| 20260510103509 | 71 | 360 | 3.5 | 7.8 | 0.00 | 0.15 | 0.00 | 76 | 1009.3 |
| 20260510103009 | 71 | 360 | 3.5 | 7.8 | 0.00 | 0.15 | 0.00 | 76 | 1009.4 |
| 20260510102509 | 71 | 360 | 3.5 | 7.0 | 0.00 | 0.15 | 0.00 | 76 | 1009.2 |
| 20260510102008 | 71 | 360 | 2.6 | 5.2 | 0.00 | 0.15 | 0.00 | 76 | 1009.2 |
| 20260510101511 | 71 | 360 | 2.6 | 5.2 | 0.00 | 0.15 | 0.00 | 76 | 1009.3 |
| 20260510101006 | 72 | 360 | 4.3 | 7.0 | 0.00 | 0.15 | 0.00 | 75 | 1009.4 |
| 20260510100508 | 72 | 360 | 3.5 | 7.0 | 0.00 | 0.15 | 0.00 | 75 | 1009.4 |
| 20260510100004 | 72 | 360 | 1.7 | 4.3 | 0.00 | 0.15 | 0.00 | 75 | 1009.2 |
| 20260510095504 | 72 | 360 | 1.7 | 4.3 | 0.00 | 0.15 | 0.00 | 75 | 1009.1 |
| 20260510095004 | 72 | 360 | 1.7 | 4.3 | 0.00 | 0.15 | 0.00 | 75 | 1009.1 |
| 20260510094502 | 72 | 360 | 1.7 | 5.2 | 0.00 | 0.15 | 0.00 | 75 | 1009.1 |
| 20260510094001 | 72 | 360 | 2.6 | 5.2 | 0.00 | 0.15 | 0.00 | 75 | 1009.2 |
| 20260510093600 | 72 | 360 | 2.6 | 5.2 | 0.00 | 0.15 | 0.00 | 74 | 1009.0 |
| 20260510093103 | 72 | 360 | 2.6 | 5.2 | 0.00 | 0.15 | 0.00 | 74 | 1009.0 |
| 20260510092559 | 72 | 360 | 2.6 | 7.0 | 0.00 | 0.15 | 0.00 | 74 | 1008.8 |
| 20260510092100 | 72 | 360 | 2.6 | 7.0 | 0.00 | 0.15 | 0.00 | 73 | 1008.8 |
| 20260510091600 | 73 | 360 | 3.5 | 7.0 | 0.00 | 0.15 | 0.00 | 73 | 1008.8 |
| 20260510091057 | 73 | 360 | 3.5 | 7.0 | 0.00 | 0.15 | 0.00 | 73 | 1008.9 |
| 20260510090556 | 73 | 360 | 3.5 | 5.2 | 0.00 | 0.15 | 0.00 | 72 | 1008.9 |
| 20260510090055 | 73 | 360 | 2.6 | 7.0 | 0.00 | 0.15 | 0.00 | 72 | 1008.8 |
| 20260510085557 | 73 | 360 | 2.6 | 7.0 | 0.00 | 0.15 | 0.00 | 72 | 1008.9 |
| 20260510085053 | 73 | 360 | 2.6 | 4.3 | 0.00 | 0.15 | 0.00 | 71 | 1008.9 |
| 20260510084555 | 74 | 360 | 1.7 | 4.3 | 0.00 | 0.15 | 0.00 | 71 | 1008.7 |
| 20260510084054 | 74 | 360 | 1.7 | 4.3 | 0.00 | 0.15 | 0.00 | 71 | 1008.8 |
| 20260510083552 | 74 | 360 | 1.7 | 4.3 | 0.00 | 0.15 | 0.00 | 71 | 1008.8 |
| 20260510083100 | 74 | 360 | 1.7 | 5.2 | 0.00 | 0.15 | 0.00 | 71 | 1008.7 |
| 20260510082551 | 74 | 360 | 0.9 | 5.2 | 0.00 | 0.15 | 0.00 | 71 | 1008.8 |
| 20260510082051 | 74 | 360 | 1.7 | 7.0 | 0.00 | 0.15 | 0.00 | 71 | 1008.8 |
| 20260510081551 | 74 | 360 | 1.7 | 7.0 | 0.00 | 0.15 | 0.00 | 70 | 1008.6 |
| 20260510081050 | 74 | 360 | 2.6 | 5.2 | 0.00 | 0.15 | 0.00 | 70 | 1008.7 |
| 20260510080549 | 74 | 360 | 1.7 | 5.2 | 0.00 | 0.15 | 0.00 | 70 | 1008.7 |
| 20260510080052 | 74 | 360 | 1.7 | 5.2 | 0.00 | 0.15 | 0.00 | 70 | 1008.7 |
| 20260510075548 | 74 | 360 | 2.6 | 5.2 | 0.00 | 0.15 | 0.00 | 70 | 1008.8 |
| 20260510075048 | 75 | 360 | 1.7 | 5.2 | 0.00 | 0.15 | 0.00 | 70 | 1008.7 |
| 20260510074548 | 75 | 360 | 2.6 | 5.2 | 0.00 | 0.15 | 0.00 | 70 | 1008.7 |
| 20260510074047 | 75 | 360 | 1.7 | 7.0 | 0.00 | 0.15 | 0.00 | 70 | 1008.6 |
| 20260510073546 | 75 | 360 | 2.6 | 7.8 | 0.00 | 0.15 | 0.00 | 70 | 1008.6 |
| 20260510073046 | 75 | 360 | 2.6 | 5.2 | 0.00 | 0.15 | 0.00 | 70 | 1008.5 |
| 20260510072546 | 75 | 360 | 2.6 | 9.6 | 0.00 | 0.15 | 0.00 | 70 | 1008.6 |
| 20260510072045 | 75 | 360 | 4.3 | 9.6 | 0.00 | 0.15 | 0.00 | 70 | 1008.7 |
| 20260510071553 | 75 | 360 | 2.6 | 5.2 | 0.00 | 0.15 | 0.00 | 70 | 1008.7 |
| 20260510071044 | 76 | 360 | 2.6 | 7.0 | 0.00 | 0.15 | 0.00 | 70 | 1008.7 |
| 20260510070544 | 76 | 360 | 3.5 | 7.0 | 0.00 | 0.15 | 0.00 | 70 | 1008.7 |
| 20260510070043 | 76 | 360 | 1.7 | 8.7 | 0.00 | 0.15 | 0.00 | 70 | 1008.8 |
| 20260510065543 | 76 | 360 | 3.5 | 8.7 | 0.00 | 0.15 | 0.00 | 70 | 1008.7 |
| 20260510065042 | 76 | 360 | 2.6 | 7.8 | 0.00 | 0.15 | 0.00 | 70 | 1008.8 |
| 20260510064541 | 76 | 360 | 1.7 | 7.8 | 0.00 | 0.15 | 0.00 | 70 | 1008.7 |
| 20260510064041 | 76 | 360 | 2.6 | 10.4 | 0.00 | 0.15 | 0.00 | 70 | 1008.6 |
| 20260510063540 | 76 | 360 | 4.3 | 10.4 | 0.00 | 0.15 | 0.00 | 70 | 1008.7 |
| 20260510063044 | 76 | 360 | 4.3 | 7.8 | 0.00 | 0.15 | 0.00 | 70 | 1008.8 |
| 20260510062539 | 77 | 360 | 2.6 | 7.8 | 0.00 | 0.15 | 0.00 | 70 | 1008.9 |
| 20260510062039 | 77 | 360 | 2.6 | 7.8 | 0.00 | 0.15 | 0.00 | 69 | 1008.8 |
| 20260510061546 | 77 | 360 | 3.5 | 9.6 | 0.00 | 0.15 | 0.00 | 69 | 1009.0 |
| 20260510061037 | 77 | 360 | 3.5 | 11.3 | 0.00 | 0.15 | 0.00 | 69 | 1008.9 |
| 20260510060538 | 77 | 360 | 5.2 | 11.3 | 0.00 | 0.15 | 0.00 | 69 | 1008.8 |
| 20260510060036 | 77 | 360 | 3.5 | 7.8 | 0.00 | 0.15 | 0.00 | 69 | 1008.8 |
| 20260510055535 | 77 | 360 | 3.5 | 7.8 | 0.00 | 0.15 | 0.00 | 69 | 1008.8 |
| 20260510055034 | 77 | 360 | 4.3 | 9.6 | 0.00 | 0.15 | 0.00 | 69 | 1008.9 |
| 20260510054534 | 78 | 360 | 5.2 | 9.6 | 0.00 | 0.15 | 0.00 | 69 | 1008.8 |
| 20260510054032 | 78 | 360 | 3.5 | 9.6 | 0.00 | 0.15 | 0.00 | 68 | 1008.6 |
| 20260510053531 | 78 | 360 | 4.3 | 10.4 | 0.00 | 0.15 | 0.00 | 68 | 1008.7 |
| 20260510053031 | 78 | 360 | 6.1 | 10.4 | 0.00 | 0.15 | 0.00 | 68 | 1008.6 |
| 20260510052533 | 78 | 360 | 3.5 | 8.7 | 0.00 | 0.15 | 0.00 | 68 | 1008.6 |
| 20260510052029 | 78 | 360 | 3.5 | 10.4 | 0.00 | 0.15 | 0.00 | 68 | 1008.5 |
| 20260510051528 | 78 | 360 | 6.1 | 11.3 | 0.00 | 0.15 | 0.00 | 68 | 1008.5 |
| 20260510051027 | 79 | 360 | 6.1 | 11.3 | 0.00 | 0.15 | 0.00 | 67 | 1008.5 |
| 20260510050527 | 79 | 360 | 4.3 | 9.6 | 0.00 | 0.15 | 0.00 | 67 | 1008.4 |
| 20260510050025 | 79 | 360 | 3.5 | 11.3 | 0.00 | 0.15 | 0.00 | 67 | 1008.3 |
| 20260510045527 | 79 | 360 | 5.2 | 11.3 | 0.00 | 0.15 | 0.15 | 67 | 1008.3 |
| 20260510045025 | 79 | 360 | 4.3 | 11.3 | 0.00 | 0.15 | 0.15 | 67 | 1008.3 |
| 20260510044524 | 80 | 360 | 4.3 | 11.3 | 0.00 | 0.15 | 0.15 | 66 | 1008.2 |
| 20260510044027 | 80 | 360 | 5.2 | 12.2 | 0.00 | 0.15 | 0.15 | 66 | 1008.2 |
| 20260510043526 | 80 | 360 | 3.5 | 12.2 | 0.00 | 0.15 | 0.15 | 66 | 1008.2 |
| 20260510043024 | 80 | 360 | 5.2 | 11.3 | 0.00 | 0.15 | 0.15 | 66 | 1008.2 |
| 20260510042523 | 80 | 360 | 5.2 | 13.9 | 0.00 | 0.15 | 0.15 | 65 | 1008.3 |
| 20260510042027 | 81 | 360 | 6.1 | 13.9 | 0.00 | 0.15 | 0.15 | 65 | 1008.2 |
| 20260510041523 | 81 | 360 | 5.2 | 14.8 | 0.00 | 0.15 | 0.15 | 65 | 1008.2 |
| 20260510041023 | 81 | 360 | 6.1 | 11.3 | 0.00 | 0.15 | 0.15 | 64 | 1008.1 |
| 20260510040523 | 81 | 360 | 5.2 | 10.4 | 0.00 | 0.15 | 0.15 | 64 | 1008.2 |
| 20260510040022 | 81 | 360 | 4.3 | 8.7 | 0.00 | 0.15 | 0.15 | 64 | 1007.9 |
| 20260510035523 | 81 | 360 | 4.3 | 7.8 | 0.00 | 0.15 | 0.15 | 64 | 1008.0 |
| 20260510035025 | 81 | 360 | 3.5 | 8.7 | 0.00 | 0.15 | 0.15 | 64 | 1007.9 |
| 20260510034522 | 81 | 360 | 4.3 | 8.7 | 0.00 | 0.15 | 0.15 | 64 | 1007.8 |
| 20260510034023 | 82 | 360 | 2.6 | 8.7 | 0.00 | 0.15 | 0.15 | 64 | 1007.9 |
| 20260510033521 | 82 | 360 | 3.5 | 8.7 | 0.00 | 0.15 | 0.15 | 64 | 1007.9 |
| 20260510033021 | 82 | 360 | 4.3 | 8.7 | 0.00 | 0.15 | 0.15 | 64 | 1007.8 |
| 20260510032521 | 82 | 360 | 3.5 | 9.6 | 0.00 | 0.15 | 0.15 | 64 | 1007.8 |
| 20260510032021 | 82 | 360 | 5.2 | 9.6 | 0.00 | 0.15 | 0.15 | 64 | 1007.8 |
| 20260510031536 | 82 | 360 | 5.2 | 9.6 | 0.00 | 0.15 | 0.15 | 64 | 1007.7 |
| 20260510031021 | 82 | 360 | 3.5 | 8.7 | 0.00 | 0.15 | 0.15 | 64 | 1007.8 |
| 20260510030520 | 82 | 360 | 4.3 | 8.7 | 0.00 | 0.15 | 0.15 | 64 | 1007.6 |
| 20260510030023 | 82 | 360 | 5.2 | 9.6 | 0.00 | 0.15 | 0.15 | 63 | 1007.6 |
| 20260510025520 | 83 | 360 | 3.5 | 9.6 | 0.00 | 0.15 | 0.15 | 63 | 1007.5 |
| 20260510025021 | 83 | 360 | 5.2 | 8.7 | 0.00 | 0.15 | 0.15 | 63 | 1007.5 |
| 20260510024533 | 83 | 360 | 3.5 | 8.7 | 0.00 | 0.15 | 0.15 | 63 | 1007.4 |
| 20260510024019 | 83 | 360 | 4.3 | 8.7 | 0.00 | 0.15 | 0.15 | 62 | 1007.3 |
| 20260510023520 | 83 | 360 | 5.2 | 8.7 | 0.00 | 0.15 | 0.15 | 62 | 1007.3 |
| 20260510023020 | 83 | 360 | 4.3 | 8.7 | 0.00 | 0.15 | 0.15 | 62 | 1007.2 |
| 20260510022522 | 83 | 360 | 4.3 | 7.8 | 0.00 | 0.15 | 0.15 | 61 | 1007.2 |
| 20260510022019 | 83 | 360 | 4.3 | 7.8 | 0.00 | 0.15 | 0.15 | 61 | 1007.2 |
| 20260510021522 | 83 | 360 | 4.3 | 7.8 | 0.00 | 0.15 | 0.15 | 61 | 1007.1 |
| 20260510021018 | 84 | 360 | 3.5 | 8.7 | 0.00 | 0.15 | 0.15 | 61 | 1007.1 |
| 20260510020518 | 84 | 360 | 3.5 | 8.7 | 0.00 | 0.15 | 0.15 | 61 | 1007.0 |
| 20260510020019 | 84 | 360 | 3.5 | 10.4 | 0.00 | 0.15 | 0.15 | 60 | 1006.9 |
| 20260510015518 | 84 | 360 | 3.5 | 10.4 | 0.00 | 0.15 | 0.15 | 60 | 1006.8 |
| 20260510015019 | 84 | 360 | 6.1 | 10.4 | 0.00 | 0.15 | 0.15 | 60 | 1006.7 |
| 20260510014519 | 84 | 360 | 4.3 | 9.6 | 0.00 | 0.15 | 0.15 | 59 | 1006.7 |
| 20260510014020 | 84 | 360 | 5.2 | 10.4 | 0.00 | 0.15 | 0.15 | 59 | 1006.7 |
| 20260510013518 | 85 | 360 | 2.6 | 11.3 | 0.00 | 0.15 | 0.15 | 59 | 1006.5 |
| 20260510013017 | 85 | 360 | 5.2 | 11.3 | 0.00 | 0.15 | 0.15 | 59 | 1006.4 |
| 20260510012517 | 85 | 360 | 6.1 | 11.3 | 0.00 | 0.15 | 0.15 | 59 | 1006.4 |
| 20260510012017 | 86 | 360 | 3.5 | 11.3 | 0.00 | 0.15 | 0.15 | 59 | 1006.3 |
| 20260510011523 | 86 | 159 | 3.5 | 9.6 | 0.00 | 0.15 | 0.15 | 59 | 1006.2 |
| 20260510011016 | 87 | 169 | 4.3 | 8.7 | 0.00 | 0.15 | 0.15 | 57 | 1006.1 |
| 20260510010516 | 87 | 165 | 3.5 | 7.8 | 0.00 | 0.15 | 0.15 | 56 | 1006.1 |
| 20260510010016 | 87 | 184 | 3.5 | 7.8 | 0.00 | 0.15 | 0.15 | 55 | 1006.0 |
| 20260510005516 | 87 | 169 | 3.5 | 8.7 | 0.00 | 0.15 | 0.15 | 55 | 1005.9 |
| 20260510005016 | 87 | 142 | 2.6 | 8.7 | 0.00 | 0.15 | 0.15 | 55 | 1005.9 |
| 20260510004516 | 88 | 190 | 2.6 | 5.2 | 0.00 | 0.15 | 0.15 | 55 | 1005.9 |
| 20260510004015 | 88 | 173 | 2.6 | 5.2 | 0.00 | 0.15 | 0.15 | 55 | 1005.8 |
| 20260510003515 | 88 | 173 | 1.7 | 9.6 | 0.00 | 0.15 | 0.15 | 55 | 1005.8 |
| 20260510003045 | 88 | 178 | 4.3 | 10.4 | 0.00 | 0.15 | 0.15 | 55 | 1005.6 |
| 20260510002518 | 88 | 158 | 5.2 | 9.6 | 0.00 | 0.15 | 0.15 | 54 | 1005.5 |
| 20260510002015 | 88 | 186 | 7.0 | 13.0 | 0.00 | 0.15 | 0.15 | 54 | 1005.4 |
| 20260510001516 | 88 | 187 | 7.0 | 13.0 | 0.00 | 0.15 | 0.15 | 54 | 1005.3 |
| 20260510001014 | 89 | 206 | 7.0 | 10.4 | 0.00 | 0.15 | 0.15 | 54 | 1005.3 |
| 20260510000513 | 89 | 360 | 5.2 | 8.7 | 0.00 | 0.15 | 0.15 | 53 | 1005.2 |
| 20260510000014 | 89 | 360 | 4.3 | 9.6 | 0.00 | 0.15 | 0.15 | 52 | 1005.2 |
| 20260509235513 | 89 | 219 | 4.3 | 7.8 | 0.00 | 0.15 | 0.15 | 52 | 1005.1 |
| 20260509235014 | 89 | 170 | 3.5 | 9.6 | 0.00 | 0.15 | 0.15 | 52 | 1005.3 |
| 20260509234523 | 89 | 162 | 4.3 | 9.6 | 0.00 | 0.15 | 0.15 | 52 | 1005.4 |
| 20260509234012 | 89 | 183 | 2.6 | 7.8 | 0.00 | 0.15 | 0.15 | 53 | 1005.5 |
| 20260509233511 | 89 | 208 | 5.2 | 7.8 | 0.00 | 0.15 | 0.15 | 52 | 1005.6 |
| 20260509233020 | 90 | 181 | 3.5 | 6.1 | 0.00 | 0.15 | 0.15 | 53 | 1005.7 |
| 20260509232512 | 89 | 178 | 1.7 | 6.1 | 0.00 | 0.15 | 0.15 | 53 | 1005.6 |
| 20260509232012 | 89 | 160 | 1.7 | 7.8 | 0.00 | 0.15 | 0.15 | 53 | 1005.7 |
| 20260509231511 | 89 | 145 | 2.6 | 8.7 | 0.00 | 0.15 | 0.15 | 53 | 1005.8 |
| 20260509231110 | 90 | 136 | 4.3 | 8.7 | 0.00 | 0.15 | 0.15 | 52 | 1005.6 |
| 20260509230510 | 90 | 240 | 1.7 | 9.6 | 0.00 | 0.15 | 0.15 | 53 | 1005.7 |
| 20260509230015 | 90 | 198 | 3.5 | 9.6 | 0.00 | 0.15 | 0.15 | 53 | 1005.6 |
| 20260509225510 | 90 | 170 | 2.6 | 7.8 | 0.00 | 0.15 | 0.15 | 53 | 1005.6 |
| 20260509225009 | 90 | 193 | 1.7 | 8.7 | 0.00 | 0.15 | 0.15 | 53 | 1005.5 |
| 20260509224510 | 89 | 174 | 2.6 | 8.7 | 0.00 | 0.15 | 0.15 | 54 | 1005.7 |
| 20260509224010 | 90 | 167 | 4.3 | 8.7 | 0.00 | 0.15 | 0.15 | 54 | 1005.7 |
| 20260509223510 | 90 | 194 | 2.6 | 9.6 | 0.00 | 0.15 | 0.15 | 53 | 1005.7 |
| 20260509223009 | 90 | 163 | 4.3 | 9.6 | 0.00 | 0.15 | 0.15 | 54 | 1005.5 |
| 20260509222508 | 89 | 263 | 1.7 | 7.8 | 0.00 | 0.15 | 0.15 | 54 | 1005.5 |
| 20260509222008 | 89 | 155 | 1.7 | 7.8 | 0.00 | 0.15 | 0.15 | 54 | 1005.6 |
| 20260509221508 | 89 | 154 | 0.9 | 7.0 | 0.00 | 0.15 | 0.15 | 53 | 1005.7 |
| 20260509221006 | 89 | 154 | 3.5 | 7.0 | 0.00 | 0.15 | 0.15 | 54 | 1005.6 |
| 20260509220506 | 89 | 165 | 2.6 | 7.0 | 0.00 | 0.15 | 0.15 | 53 | 1005.7 |
| 20260509220008 | 88 | 230 | 1.7 | 10.4 | 0.00 | 0.15 | 0.15 | 54 | 1005.6 |
| 20260509215507 | 89 | 244 | 7.8 | 10.4 | 0.00 | 0.15 | 0.15 | 54 | 1005.7 |
| 20260509215007 | 89 | 213 | 3.5 | 6.1 | 0.00 | 0.15 | 0.15 | 54 | 1005.7 |
| 20260509214508 | 89 | 360 | 0.0 | 9.6 | 0.00 | 0.15 | 0.15 | 55 | 1005.7 |
| 20260509214006 | 89 | 360 | 6.1 | 10.4 | 0.00 | 0.15 | 0.15 | 54 | 1005.8 |
| 20260509213505 | 89 | 360 | 6.1 | 12.2 | 0.00 | 0.15 | 0.15 | 54 | 1005.7 |
| 20260509213006 | 89 | 360 | 7.8 | 11.3 | 0.00 | 0.15 | 0.15 | 55 | 1005.8 |
| 20260509212505 | 89 | 360 | 1.7 | 7.0 | 0.00 | 0.15 | 0.15 | 54 | 1005.8 |
| 20260509212004 | 90 | 360 | 1.7 | 8.7 | 0.00 | 0.15 | 0.15 | 54 | 1005.9 |
| 20260509211503 | 89 | 175 | 3.5 | 11.3 | 0.00 | 0.15 | 0.15 | 54 | 1006.1 |
| 20260509211002 | 90 | 360 | 8.7 | 11.3 | 0.00 | 0.15 | 0.15 | 53 | 1006.1 |
| 20260509210504 | 89 | 245 | 2.6 | 9.6 | 0.00 | 0.15 | 0.15 | 53 | 1006.2 |
| 20260509210104 | 89 | 360 | 4.3 | 9.6 | 0.00 | 0.15 | 0.15 | 53 | 1006.2 |
| 20260509205559 | 89 | 192 | 4.3 | 9.6 | 0.00 | 0.15 | 0.15 | 53 | 1006.2 |
| 20260509205058 | 89 | 188 | 6.1 | 9.6 | 0.00 | 0.15 | 0.15 | 52 | 1006.4 |
| 20260509204557 | 89 | 163 | 3.5 | 13.0 | 0.00 | 0.15 | 0.15 | 53 | 1006.5 |
| 20260509204056 | 89 | 143 | 4.3 | 12.2 | 0.00 | 0.15 | 0.15 | 54 | 1006.6 |
| 20260509203555 | 88 | 196 | 4.3 | 12.2 | 0.00 | 0.15 | 0.15 | 55 | 1006.7 |
| 20260509203053 | 88 | 218 | 2.6 | 10.4 | 0.00 | 0.15 | 0.15 | 56 | 1006.7 |
| 20260509202555 | 88 | 204 | 7.8 | 10.4 | 0.00 | 0.15 | 0.15 | 56 | 1006.8 |
| 20260509202052 | 88 | 259 | 6.1 | 10.4 | 0.00 | 0.15 | 0.15 | 56 | 1006.9 |
| 20260509201552 | 88 | 360 | 6.1 | 12.2 | 0.00 | 0.15 | 0.15 | 55 | 1007.1 |
| 20260509201052 | 88 | 220 | 3.5 | 7.8 | 0.00 | 0.15 | 0.15 | 56 | 1007.1 |
| 20260509200551 | 88 | 225 | 4.3 | 7.8 | 0.00 | 0.15 | 0.15 | 56 | 1007.1 |
| 20260509200054 | 88 | 171 | 4.3 | 7.0 | 0.00 | 0.15 | 0.15 | 56 | 1007.3 |
| 20260509195546 | 87 | 279 | 2.6 | 7.8 | 0.00 | 0.15 | 0.15 | 59 | 1007.4 |
| 20260509195046 | 86 | 281 | 2.6 | 7.8 | 0.00 | 0.15 | 0.15 | 59 | 1007.5 |
| 20260509194545 | 86 | 265 | 2.6 | 8.7 | 0.00 | 0.15 | 0.15 | 59 | 1007.6 |
| 20260509194045 | 86 | 261 | 3.5 | 12.2 | 0.00 | 0.15 | 0.15 | 59 | 1007.7 |
| 20260509193544 | 86 | 239 | 2.6 | 12.2 | 0.00 | 0.15 | 0.15 | 58 | 1007.7 |
| 20260509193044 | 86 | 217 | 4.3 | 8.7 | 0.00 | 0.15 | 0.15 | 59 | 1007.8 |
| 20260509192546 | 86 | 310 | 0.9 | 9.6 | 0.00 | 0.15 | 0.15 | 60 | 1007.8 |
| 20260509192046 | 86 | 302 | 6.1 | 10.4 | 0.00 | 0.15 | 0.15 | 59 | 1007.9 |
| 20260509191544 | 86 | 202 | 6.1 | 10.4 | 0.00 | 0.15 | 0.15 | 57 | 1007.9 |
| 20260509191047 | 86 | 208 | 5.2 | 15.6 | 0.00 | 0.15 | 0.15 | 57 | 1007.9 |
| 20260509190543 | 86 | 244 | 7.0 | 15.6 | 0.00 | 0.15 | 0.15 | 57 | 1007.9 |
| 20260509190044 | 86 | 259 | 6.1 | 13.9 | 0.00 | 0.15 | 0.15 | 57 | 1008.0 |
| 20260509185542 | 86 | 285 | 7.0 | 13.9 | 0.00 | 0.15 | 0.15 | 58 | 1008.0 |
| 20260509185041 | 86 | 258 | 1.7 | 10.4 | 0.00 | 0.15 | 0.15 | 59 | 1008.1 |
| 20260509184539 | 85 | 236 | 5.2 | 13.0 | 0.00 | 0.15 | 0.15 | 58 | 1008.1 |
| 20260509184039 | 85 | 244 | 7.8 | 13.0 | 0.00 | 0.15 | 0.15 | 58 | 1008.2 |
| 20260509183542 | 85 | 257 | 5.2 | 10.4 | 0.00 | 0.15 | 0.15 | 59 | 1008.3 |
| 20260509183054 | 85 | 219 | 6.1 | 12.2 | 0.00 | 0.15 | 0.15 | 60 | 1008.3 |
| 20260509182537 | 85 | 217 | 1.7 | 13.9 | 0.00 | 0.15 | 0.15 | 60 | 1008.3 |
| 20260509182041 | 84 | 235 | 2.6 | 13.9 | 0.00 | 0.15 | 0.15 | 60 | 1008.3 |
| 20260509181545 | 84 | 210 | 7.0 | 10.4 | 0.00 | 0.15 | 0.15 | 61 | 1008.4 |
| 20260509181035 | 84 | 279 | 6.1 | 9.6 | 0.00 | 0.15 | 0.15 | 62 | 1008.5 |
| 20260509180534 | 84 | 241 | 3.5 | 8.7 | 0.00 | 0.15 | 0.15 | 62 | 1008.6 |
| 20260509180034 | 83 | 232 | 5.2 | 14.8 | 0.00 | 0.15 | 0.15 | 64 | 1008.6 |
| 20260509175533 | 83 | 226 | 7.8 | 13.9 | 0.00 | 0.15 | 0.15 | 64 | 1008.6 |
| 20260509175031 | 83 | 248 | 5.2 | 13.0 | 0.00 | 0.15 | 0.15 | 64 | 1008.8 |
| 20260509174532 | 82 | 261 | 6.1 | 13.0 | 0.00 | 0.15 | 0.15 | 65 | 1008.8 |
| 20260509174030 | 82 | 277 | 7.8 | 11.3 | 0.00 | 0.15 | 0.15 | 65 | 1008.8 |
| 20260509173529 | 82 | 246 | 5.2 | 8.7 | 0.00 | 0.15 | 0.15 | 67 | 1008.9 |
| 20260509173027 | 82 | 273 | 2.6 | 7.8 | 0.00 | 0.15 | 0.15 | 69 | 1008.9 |
| 20260509172526 | 81 | 230 | 4.3 | 9.6 | 0.00 | 0.15 | 0.15 | 69 | 1008.9 |
| 20260509172025 | 81 | 253 | 6.1 | 9.6 | 0.00 | 0.15 | 0.15 | 70 | 1009.1 |
| 20260509171525 | 80 | 285 | 7.0 | 9.6 | 0.00 | 0.15 | 0.15 | 70 | 1009.1 |
| 20260509171021 | 80 | 232 | 4.3 | 9.6 | 0.00 | 0.15 | 0.15 | 72 | 1009.1 |
| 20260509170521 | 80 | 289 | 3.5 | 9.6 | 0.00 | 0.15 | 0.15 | 72 | 1009.1 |
| 20260509170020 | 80 | 279 | 5.2 | 8.7 | 0.00 | 0.15 | 0.15 | 73 | 1009.1 |
| 20260509165519 | 79 | 272 | 4.3 | 10.4 | 0.00 | 0.15 | 0.15 | 75 | 1009.2 |
| 20260509165017 | 79 | 238 | 5.2 | 9.6 | 0.00 | 0.15 | 0.15 | 76 | 1009.2 |